Location: Augirein
(42.9320°N, 0.9181°E)
Time: 20:12:37
(UTC+00:00)

IRS-P3 - Pass Details

Date: 20 June 2021
Orbit: 813 x 819 km, 98.9° (Epoch: 23 July)

Event Time Altitude Azimuth Distance (km) Brightness Sun altitude
Rises 02:44:54 0° 17° (NNE) 3,348 8.7 -13.3°
Reaches altitude 10° 02:47:17 10° 20° (NNE) 2,412 7.8 -13.0°
Maximum altitude 02:52:35 65° 102° (ESE) 896 4.5 -12.4°
Drops below altitude 10° 02:57:50 10° 184° (S) 2,394 6.1 -11.8°
Enters shadow 02:58:07 - 185° (S) 2,499 6.2 -11.8°
